Hourly Weather Muyinga

Today, 15 August, Saturday

Time Temperature Precipitation Wind Pressure Humidity
00:00 +18°C° 0 mm 0 mps 627 mmHg 44%
01:00 +18°C° 0 mm 0 mps 627 mmHg 47%
02:00 +17°C° 0 mm 0 mps 626 mmHg 55%
03:00 +16°C° 0 mm 0 mps 626 mmHg 57%
04:00 +16°C° 0 mm 0 mps 626 mmHg 60%
05:00 +15°C° 0 mm 0 mps 626 mmHg 62%
06:00 +18°C° 0 mm 0 mps 627 mmHg 56%
07:00 +20°C° 0 mm 0 mps 628 mmHg 51%
08:00 +23°C° 0 mm 0 mps 630 mmHg 42%
09:00 +27°C° 0 mm 1 mps 630 mmHg 38%
10:00 +29°C° 0 mm 1 mps 631 mmHg 33%
11:00 +31°C° 0 mm 2 mps 631 mmHg 28%
12:00 +31°C° 0 mm 2 mps 630 mmHg 27%
13:00 +31°C° 0 mm 2 mps 629 mmHg 27%
14:00 +30°C° 0 mm 3 mps 629 mmHg 28%
15:00 +30°C° 0 mm 2 mps 628 mmHg 28%
16:00 +29°C° 0 mm 2 mps 628 mmHg 29%
17:00 +29°C° 0 mm 2 mps 628 mmHg 30%
18:00 +27°C° 0 mm 2 mps 628 mmHg 35%
19:00 +25°C° 0 mm 2 mps 628 mmHg 40%
20:00 +23°C° 0 mm 1 mps 627 mmHg 45%
21:00 +22°C° 0 mm 1 mps 627 mmHg 49%
22:00 +21°C° 0 mm 1 mps 627 mmHg 54%
23:00 +20°C° 0 mm 1 mps 627 mmHg 58%

Tomorrow, 16 August, Sunday

Time Temperature Precipitation Wind Pressure Humidity
00:00 +19°C° 0 mm 1 mps 627 mmHg 59%
01:00 +17°C° 0 mm 0 mps 626 mmHg 60%
02:00 +16°C° 0 mm 0 mps 626 mmHg 60%
03:00 +16°C° 0 mm 0 mps 626 mmHg 60%
04:00 +16°C° 0 mm 0 mps 626 mmHg 60%
05:00 +16°C° 0 mm 0 mps 626 mmHg 60%
06:00 +18°C° 0 mm 0 mps 627 mmHg 53%
07:00 +22°C° 0 mm 1 mps 628 mmHg 47%
08:00 +24°C° 0 mm 1 mps 630 mmHg 40%
09:00 +26°C° 0 mm 2 mps 630 mmHg 36%
10:00 +28°C° 0 mm 3 mps 630 mmHg 31%
11:00 +29°C° 0 mm 4 mps 630 mmHg 26%
12:00 +30°C° 0 mm 4 mps 630 mmHg 24%
13:00 +32°C° 0 mm 4 mps 629 mmHg 23%
14:00 +33°C° 0 mm 4 mps 629 mmHg 22%
15:00 +31°C° 0 mm 3 mps 629 mmHg 22%
16:00 +31°C° 0 mm 3 mps 628 mmHg 23%
17:00 +30°C° 0 mm 3 mps 628 mmHg 24%
18:00 +27°C° 0 mm 3 mps 627 mmHg 29%
19:00 +24°C° 0 mm 2 mps 627 mmHg 35%
20:00 +22°C° 0 mm 1 mps 627 mmHg 40%
21:00 +20°C° 0 mm 2 mps 627 mmHg 42%
22:00 +19°C° 0 mm 2 mps 627 mmHg 44%
23:00 +19°C° 0 mm 2 mps 627 mmHg 45%

Day after tomorrow, 17 August, Monday

Time Temperature Precipitation Wind Pressure Humidity
00:00 +19°C° 0 mm 1 mps 627 mmHg 47%
01:00 +19°C° 0 mm 1 mps 626 mmHg 50%
02:00 +18°C° 0 mm 1 mps 626 mmHg 52%
03:00 +18°C° 0 mm 1 mps 626 mmHg 53%
04:00 +16°C° 0 mm 1 mps 626 mmHg 54%
05:00 +16°C° 0 mm 1 mps 626 mmHg 55%
06:00 +18°C° 0 mm 2 mps 627 mmHg 50%
07:00 +20°C° 0 mm 2 mps 628 mmHg 44%
08:00 +22°C° 0 mm 3 mps 630 mmHg 38%
09:00 +25°C° 0 mm 3 mps 630 mmHg 34%
10:00 +27°C° 0 mm 3 mps 630 mmHg 30%
11:00 +29°C° 0 mm 3 mps 631 mmHg 26%
12:00 +30°C° 0 mm 3 mps 630 mmHg 24%
13:00 +32°C° 0 mm 4 mps 630 mmHg 22%
14:00 +33°C° 0 mm 4 mps 629 mmHg 20%
15:00 +31°C° 0 mm 3 mps 628 mmHg 21%
16:00 +31°C° 0 mm 3 mps 628 mmHg 22%
17:00 +30°C° 0 mm 3 mps 627 mmHg 23%
18:00 +27°C° 0 mm 2 mps 627 mmHg 27%
19:00 +24°C° 0 mm 2 mps 627 mmHg 32%
20:00 +21°C° 0 mm 1 mps 627 mmHg 36%
21:00 +21°C° 0 mm 1 mps 627 mmHg 37%
22:00 +21°C° 0 mm 1 mps 627 mmHg 37%
23:00 +20°C° 0 mm 1 mps 627 mmHg 38%

18 August, Tuesday

Time Temperature Precipitation Wind Pressure Humidity
00:00 +20°C° 0 mm 1 mps 627 mmHg 39%
01:00 +19°C° 0 mm 1 mps 626 mmHg 41%
02:00 +18°C° 0 mm 1 mps 626 mmHg 42%
03:00 +18°C° 0 mm 1 mps 626 mmHg 44%
04:00 +15°C° 0 mm 0 mps 626 mmHg 47%
05:00 +14°C° 0 mm 0 mps 626 mmHg 49%
06:00 +18°C° 0 mm 1 mps 627 mmHg 46%
07:00 +19°C° 0 mm 2 mps 628 mmHg 42%
08:00 +21°C° 0 mm 2 mps 629 mmHg 39%
09:00 +25°C° 0 mm 3 mps 630 mmHg 36%
10:00 +27°C° 0 mm 3 mps 630 mmHg 32%
11:00 +29°C° 0 mm 3 mps 631 mmHg 29%
12:00 +30°C° 0 mm 3 mps 630 mmHg 26%
13:00 +31°C° 0 mm 3 mps 629 mmHg 24%
14:00 +33°C° 0 mm 3 mps 629 mmHg 21%
15:00 +31°C° 0 mm 3 mps 628 mmHg 22%
16:00 +30°C° 0 mm 3 mps 627 mmHg 22%
17:00 +30°C° 0 mm 3 mps 627 mmHg 23%
18:00 +27°C° 0 mm 3 mps 627 mmHg 29%
19:00 +24°C° 0 mm 2 mps 626 mmHg 34%
20:00 +21°C° 0 mm 1 mps 626 mmHg 40%
21:00 +21°C° 0 mm 1 mps 626 mmHg 40%
22:00 +20°C° 0 mm 1 mps 626 mmHg 41%
23:00 +20°C° 0 mm 1 mps 626 mmHg 42%

19 August, Wednesday

Time Temperature Precipitation Wind Pressure Humidity
00:00 +19°C° 0 mm 1 mps 626 mmHg 45%
01:00 +18°C° 0 mm 1 mps 625 mmHg 47%
02:00 +16°C° 0 mm 1 mps 625 mmHg 49%
03:00 +15°C° 0 mm 0 mps 625 mmHg 51%
04:00 +14°C° 0 mm 0 mps 625 mmHg 52%
05:00 +14°C° 0 mm 0 mps 625 mmHg 54%
06:00 +16°C° 0 mm 0 mps 626 mmHg 47%
07:00 +21°C° 0 mm 1 mps 628 mmHg 41%
08:00 +24°C° 0 mm 1 mps 629 mmHg 34%
09:00 +26°C° 0 mm 2 mps 630 mmHg 31%
10:00 +27°C° 0 mm 2 mps 630 mmHg 27%
11:00 +29°C° 0 mm 3 mps 630 mmHg 24%
12:00 +30°C° 0 mm 3 mps 630 mmHg 22%
13:00 +31°C° 0 mm 3 mps 629 mmHg 21%
14:00 +33°C° 0 mm 3 mps 628 mmHg 20%
15:00 +31°C° 0 mm 3 mps 628 mmHg 21%
16:00 +30°C° 0 mm 3 mps 627 mmHg 21%
17:00 +29°C° 0 mm 3 mps 627 mmHg 22%
18:00 +27°C° 0 mm 2 mps 627 mmHg 25%
19:00 +24°C° 0 mm 2 mps 626 mmHg 29%
20:00 +22°C° 0 mm 1 mps 626 mmHg 33%
21:00 +21°C° 0 mm 1 mps 626 mmHg 37%
22:00 +18°C° 0 mm 0 mps 626 mmHg 42%
23:00 +17°C° 0 mm 0 mps 626 mmHg 46%

20 August, Thursday

Time Temperature Precipitation Wind Pressure Humidity
00:00 +16°C° 0 mm 0 mps 625 mmHg 47%
01:00 +16°C° 0 mm 0 mps 625 mmHg 48%
02:00 +15°C° 0 mm 0 mps 624 mmHg 49%
03:00 +15°C° 0 mm 0 mps 624 mmHg 49%
04:00 +15°C° 0 mm 0 mps 624 mmHg 50%
05:00 +15°C° 0 mm 0 mps 624 mmHg 50%
06:00 +19°C° 0 mm 1 mps 626 mmHg 47%
07:00 +21°C° 0 mm 1 mps 627 mmHg 44%
08:00 +23°C° 0 mm 1 mps 628 mmHg 40%
09:00 +25°C° 0 mm 1 mps 629 mmHg 36%
10:00 +28°C° 0 mm 2 mps 630 mmHg 32%
11:00 +30°C° 0 mm 2 mps 630 mmHg 28%
12:00 +30°C° 0 mm 2 mps 629 mmHg 29%
13:00 +30°C° 0 mm 3 mps 628 mmHg 29%
14:00 +30°C° 0 mm 3 mps 627 mmHg 30%
15:00 +28°C° 0 mm 3 mps 627 mmHg 32%
16:00 +27°C° 0 mm 2 mps 627 mmHg 35%
17:00 +26°C° 0 mm 2 mps 626 mmHg 38%
18:00 +25°C° 0 mm 2 mps 627 mmHg 41%
19:00 +25°C° 0 mm 2 mps 627 mmHg 43%
20:00 +24°C° 0 mm 1 mps 627 mmHg 46%
21:00 +23°C° 0 mm 1 mps 627 mmHg 48%
22:00 +23°C° 0 mm 1 mps 627 mmHg 50%
23:00 +20°C° 0 mm 0 mps 627 mmHg 53%
Show more